Tracking 29933 objects as of 2-Dec-2024
HD Live streaming from Space Station
objects crossing your sky now

STARLINK-11199

Track STARLINK-11199 now!
10-day predictions
STARLINK-11199 is classified as:


NORAD ID: 60404
Int'l Code: 2024-141G
Perigee: 365.8 km
Apogee: 367.8 km
Inclination: 53.2 °
Period: 91.7 minutes
Semi major axis: 6737 km
RCS: Unknown
Launch date: August 10, 2024
Source: United States (US)
Launch site: AIR FORCE EASTERN TEST RANGE (AFETR)
Your satellite tracking list
Your tracking list is empty




NASA's NSSDC Master Catalog

Two Line Element Set (TLE):
1 60404U 24141G   24335.95286081 -.00003004  00000-0 -19917-4 0  9992
2 60404  53.1585 212.6167 0001511  90.3457 269.7734 15.69730481 18904
Source of the keplerian elements: AFSPC